TimeCDT,TemperatureF,Dew PointF,Humidity,Sea Level PressureIn,VisibilityMPH,Wind Direction,Wind SpeedMPH,Gust SpeedMPH,PrecipitationIn,Events,Conditions,WindDirDegrees,DateUTC
12:15 AM,78.8,66.2,65,29.82,10.0,South,21.9,26.5,N/A,,Clear,170,2013-06-22 05:15:00
12:35 AM,77.0,66.2,69,29.82,10.0,SSE,19.6,25.3,N/A,,Clear,160,2013-06-22 05:35:00
12:55 AM,77.0,66.2,69,29.81,10.0,South,20.7,26.5,N/A,,Clear,170,2013-06-22 05:55:00
1:15 AM,77.0,66.2,69,29.80,10.0,South,23.0,29.9,N/A,,Clear,170,2013-06-22 06:15:00
1:35 AM,77.0,64.4,65,29.80,10.0,South,24.2,34.5,N/A,,Clear,170,2013-06-22 06:35:00
1:55 AM,77.0,64.4,65,29.80,10.0,South,21.9,28.8,N/A,,Clear,170,2013-06-22 06:55:00
2:15 AM,77.0,64.4,65,29.79,10.0,South,21.9,32.2,N/A,,Clear,170,2013-06-22 07:15:00
2:55 AM,77.0,64.4,65,29.79,10.0,South,20.7,28.8,N/A,,Clear,180,2013-06-22 07:55:00
3:15 AM,77.0,64.4,65,29.78,10.0,South,20.7,28.8,N/A,,Clear,180,2013-06-22 08:15:00
3:35 AM,77.0,64.4,65,29.78,10.0,South,24.2,32.2,N/A,,Clear,180,2013-06-22 08:35:00
3:55 AM,77.0,62.6,61,29.78,10.0,South,21.9,29.9,N/A,,Clear,170,2013-06-22 08:55:00
4:15 AM,75.2,62.6,65,29.78,10.0,South,17.3,25.3,N/A,,Clear,170,2013-06-22 09:15:00
4:35 AM,73.4,62.6,69,29.80,10.0,SSW,10.4,23.0,N/A,,Clear,200,2013-06-22 09:35:00
4:55 AM,73.4,62.6,69,29.79,10.0,South,12.7,-,N/A,,Clear,180,2013-06-22 09:55:00
5:15 AM,71.6,62.6,73,29.80,10.0,SW,6.9,17.3,N/A,,Clear,220,2013-06-22 10:15:00
5:35 AM,71.6,62.6,73,29.81,10.0,Calm,Calm,-,N/A,,Clear,0,2013-06-22 10:35:00
5:55 AM,68.0,62.6,83,29.81,10.0,East,3.5,-,N/A,,Clear,100,2013-06-22 10:55:00
6:15 AM,66.2,62.6,88,29.82,10.0,NE,10.4,-,N/A,,Clear,50,2013-06-22 11:15:00
6:35 AM,68.0,62.6,83,29.81,10.0,SE,9.2,-,N/A,,Clear,130,2013-06-22 11:35:00
6:55 AM,64.4,62.6,94,29.81,10.0,ESE,8.1,-,N/A,,Clear,110,2013-06-22 11:55:00
7:15 AM,66.2,62.6,88,29.82,10.0,East,9.2,-,N/A,,Clear,90,2013-06-22 12:15:00
7:35 AM,66.2,62.6,88,29.82,10.0,East,8.1,-,N/A,,Clear,100,2013-06-22 12:35:00
7:55 AM,68.0,62.6,83,29.82,10.0,SE,8.1,-,N/A,,Clear,130,2013-06-22 12:55:00
8:15 AM,69.8,62.6,78,29.82,10.0,SE,9.2,-,N/A,,Clear,140,2013-06-22 13:15:00
8:35 AM,71.6,62.6,73,29.82,10.0,SE,11.5,-,N/A,,Clear,140,2013-06-22 13:35:00
8:55 AM,71.6,64.4,78,29.82,10.0,SSE,9.2,-,N/A,,Clear,160,2013-06-22 13:55:00
9:35 AM,75.2,62.6,65,29.82,10.0,SSW,8.1,-,N/A,,Clear,200,2013-06-22 14:35:00
9:55 AM,73.4,62.6,69,29.82,10.0,SSW,8.1,-,N/A,,Clear,200,2013-06-22 14:55:00
10:15 AM,73.4,60.8,65,29.82,10.0,SSW,8.1,-,N/A,,Clear,200,2013-06-22 15:15:00
10:35 AM,75.2,60.8,61,29.83,10.0,South,6.9,-,N/A,,Clear,190,2013-06-22 15:35:00
10:55 AM,75.2,62.6,65,29.84,10.0,SSW,8.1,-,N/A,,Clear,200,2013-06-22 15:55:00
11:15 AM,77.0,62.6,61,29.84,10.0,SSW,6.9,-,N/A,,Clear,210,2013-06-22 16:15:00
11:35 AM,77.0,62.6,61,29.84,10.0,SSW,8.1,-,N/A,,Clear,200,2013-06-22 16:35:00
11:55 AM,80.6,62.6,54,29.84,10.0,South,10.4,-,N/A,,Clear,190,2013-06-22 16:55:00
12:15 PM,80.6,62.6,54,29.84,10.0,SSW,11.5,-,N/A,,Clear,210,2013-06-22 17:15:00
12:35 PM,82.4,62.6,51,29.83,10.0,SSW,9.2,-,N/A,,Clear,200,2013-06-22 17:35:00
12:55 PM,82.4,62.6,51,29.82,10.0,South,9.2,-,N/A,,Clear,190,2013-06-22 17:55:00
1:15 PM,86.0,62.6,45,29.82,10.0,South,9.2,-,N/A,,Clear,190,2013-06-22 18:15:00
1:35 PM,87.8,62.6,43,29.81,10.0,SSW,11.5,16.1,N/A,,Clear,210,2013-06-22 18:35:00
1:55 PM,87.8,62.6,43,29.81,10.0,SSW,12.7,-,N/A,,Clear,210,2013-06-22 18:55:00
2:15 PM,89.6,62.6,40,29.80,10.0,SSW,13.8,20.7,N/A,,Clear,210,2013-06-22 19:15:00
2:35 PM,89.6,62.6,40,29.79,10.0,SW,16.1,-,N/A,,Clear,220,2013-06-22 19:35:00
2:55 PM,89.6,62.6,40,29.79,10.0,SSW,11.5,17.3,N/A,,Clear,200,2013-06-22 19:55:00
3:15 PM,89.6,62.6,40,29.78,10.0,SW,10.4,-,N/A,,Clear,220,2013-06-22 20:15:00
3:35 PM,89.6,62.6,40,29.78,10.0,SW,13.8,17.3,N/A,,Clear,220,2013-06-22 20:35:00
3:55 PM,91.4,62.6,38,29.77,10.0,WSW,9.2,-,N/A,,Clear,240,2013-06-22 20:55:00
4:15 PM,89.6,62.6,40,29.76,10.0,SW,9.2,-,N/A,,Clear,220,2013-06-22 21:15:00
4:35 PM,89.6,62.6,40,29.76,10.0,SW,8.1,-,N/A,,Clear,230,2013-06-22 21:35:00
4:55 PM,89.6,62.6,40,29.75,10.0,WSW,6.9,-,N/A,,Clear,240,2013-06-22 21:55:00
5:15 PM,91.4,62.6,38,29.75,10.0,WSW,10.4,-,N/A,,Clear,250,2013-06-22 22:15:00
5:35 PM,91.4,62.6,38,29.74,10.0,SW,6.9,-,N/A,,Clear,220,2013-06-22 22:35:00
5:55 PM,91.4,62.6,38,29.73,10.0,WSW,5.8,-,N/A,,Clear,240,2013-06-22 22:55:00
6:15 PM,87.8,66.2,49,29.72,10.0,West,4.6,-,N/A,,Clear,280,2013-06-22 23:15:00
6:35 PM,87.8,66.2,49,29.71,10.0,WNW,4.6,-,N/A,,Clear,300,2013-06-22 23:35:00
6:55 PM,89.6,64.4,43,29.71,10.0,Calm,Calm,-,N/A,,Clear,0,2013-06-22 23:55:00
7:15 PM,89.6,62.6,40,29.70,10.0,SSE,20.7,25.3,N/A,,Clear,160,2013-06-23 00:15:00
7:35 PM,89.6,62.6,40,29.72,10.0,SSE,23.0,29.9,N/A,,Scattered Clouds,160,2013-06-23 00:35:00
7:55 PM,87.8,62.6,43,29.71,10.0,SSE,15.0,18.4,N/A,,Scattered Clouds,160,2013-06-23 00:55:00
8:15 PM,87.8,60.8,40,29.73,10.0,SSE,17.3,23.0,N/A,,Clear,160,2013-06-23 01:15:00
8:35 PM,86.0,64.4,48,29.73,10.0,SSE,18.4,27.6,N/A,,Clear,150,2013-06-23 01:35:00
8:55 PM,86.0,59.0,40,29.74,10.0,South,13.8,24.2,N/A,,Clear,170,2013-06-23 01:55:00
9:15 PM,86.0,53.6,33,29.72,10.0,SSE,19.6,27.6,N/A,,Clear,150,2013-06-23 02:15:00
9:35 PM,86.0,62.6,45,29.73,10.0,South,26.5,35.7,N/A,,Clear,180,2013-06-23 02:35:00
9:55 PM,84.2,64.4,51,29.73,10.0,SSE,24.2,29.9,N/A,,Clear,160,2013-06-23 02:55:00
10:15 PM,84.2,64.4,51,29.75,10.0,SE,27.6,34.5,N/A,,Clear,140,2013-06-23 03:15:00
10:35 PM,82.4,66.2,58,29.76,10.0,SE,23.0,27.6,N/A,,Clear,140,2013-06-23 03:35:00
10:55 PM,82.4,66.2,58,29.75,10.0,SE,24.2,29.9,N/A,,Clear,140,2013-06-23 03:55:00
11:15 PM,82.4,66.2,58,29.74,10.0,SSE,23.0,32.2,N/A,,Clear,150,2013-06-23 04:15:00
11:35 PM,80.6,66.2,61,29.73,10.0,SSE,23.0,29.9,N/A,,Clear,150,2013-06-23 04:35:00
11:55 PM,80.6,66.2,61,29.73,10.0,SSE,21.9,27.6,N/A,,Clear,150,2013-06-23 04:55:00